[[{"header":{"parameterUnit":"m.s-1","parameterCategory":1,"la1":30.2991,"la2":30.254,"lo1":-89.0895,"lo2":-89.0444,"dy":0.0017,"dx":0.0017,"nx":28,"ny":28,"refTime":"2023-07-24T21:00:00:Z","depth":0,"parameterNumber":2,"parameterNumberName":"U-component_of_WINDS"},"data":[0,0,0,0,0,0,0,0,0,0,0,0,0,0,0,0,0,0,0,0,0,0,0,0,0,0,0,0,0,0,0,0,0,0,0,0,0,0,0,0,0,0,0,0,0,0,0,0,0,0,0,0,0,0,0,0,0,0,2.8743,2.8744,0,2.8812,2.8813,2.8814,2.8777,2.8775,2.8773,2.8771,2.884,2.8843,2.8847,0,0,0,0,0,0,0,0,0,0,0,0,0,2.8575,2.8578,2.8743,2.8744,2.8745,2.8812,2.8813,2.8814,2.8777,2.8775,2.8773,2.877,2.8839,2.8843,2.8847,0,0,0,0,0,0,0,0,0,0,0,0,0,2.8646,2.8579,2.8743,2.8734,2.8734,2.8812,2.8813,2.8814,2.8778,2.8775,2.8772,2.8769,2.8837,2.8843,2.8848,2.8937,0,0,2.8864,2.8866,0,0,0,0,0,0,0,0,2.8642,2.8653,2.8735,2.8735,2.8735,2.8783,2.8779,2.8855,2.8778,2.8761,2.8771,2.8768,2.8823,2.8829,2.8849,2.894,2.8943,2.8865,2.8868,2.887,2.8872,0,0,0,0,0,0,0,2.8638,2.8649,2.877,2.8736,2.8736,2.8726,2.8733,2.8793,2.8807,2.8762,2.876,2.8769,2.8823,2.8843,2.885,2.8944,2.8864,2.8869,2.8873,2.8875,2.9109,2.9112,0,0,0,0,0,0,2.8633,2.8646,2.8768,2.8772,2.8681,2.8731,2.8739,2.8771,2.8806,2.8809,2.8771,2.8767,2.8836,2.8844,2.8852,2.8957,2.887,2.8875,2.8878,2.9106,2.911,2.9113,0,0,0,0,0,0,2.863,2.8645,2.8765,2.8708,2.8723,2.8737,2.8773,2.8773,2.8794,2.8813,2.8815,2.879,2.8834,2.8845,2.8916,2.8959,2.8878,2.8882,2.9103,2.9108,2.9112,2.9168,0,0,0,0,0,0,2.8625,2.8644,2.8679,2.8709,2.8726,2.8829,2.8775,2.8777,2.8804,2.8799,2.8831,2.8834,2.8832,2.8908,2.8921,2.8965,2.8887,2.9099,2.9105,2.911,2.9163,2.9174,2.9184,0,0,0,0,0,2.8619,2.8692,2.8681,2.8696,2.877,2.8832,2.8841,2.8839,2.8807,2.8842,2.8853,2.8833,2.8952,2.8916,2.893,2.8976,2.9096,2.9103,2.911,2.9158,2.9172,2.9184,0,0,0,0,0,0,2.8666,2.8696,2.8684,2.8769,2.8798,2.8825,2.8869,2.8854,2.8892,2.8886,2.8881,2.8889,2.8962,2.8976,2.8935,2.9063,2.9019,2.9029,2.9051,2.9064,2.9075,2.9069,2.8891,0,0,0,0,0,2.8686,2.8734,2.8757,2.883,2.8845,2.8855,2.8881,2.8877,2.8907,2.8919,2.8936,2.8965,2.9008,2.9037,2.9079,2.9165,2.917,2.9203,2.9214,2.9223,2.9231,2.9275,2.9289,2.9136,2.9136,2.9136,0,0,2.8728,2.875,2.8781,2.884,2.8862,2.891,2.8865,2.8919,2.8955,2.8927,2.8994,2.9008,2.9039,2.9118,2.9153,2.9132,2.9275,2.9231,2.9238,2.9242,2.9283,2.9298,2.9311,2.914,2.914,2.9139,0,0,2.8828,2.8851,2.8913,2.8936,2.897,2.8976,2.899,2.902,2.9028,2.9096,2.9075,2.9117,2.9193,2.9216,2.9237,2.9345,2.9326,2.9359,2.9414,2.9457,2.9469,2.948,2.9516,2.9529,2.9367,2.9367,2.9368,0,2.8876,2.8949,2.8946,2.9001,2.9027,2.9004,2.9066,2.9088,2.9134,2.9151,2.9127,2.9221,2.9241,2.9323,2.9349,2.9368,2.9383,2.9355,2.9468,2.9479,2.9489,2.9523,2.9537,2.9371,2.9371,2.937,2.937,0,2.9005,2.9056,2.9101,2.9146,2.9177,2.9235,2.9239,2.9271,2.9263,2.9271,2.9339,2.9362,2.9407,2.9427,2.942,2.9507,2.9493,2.9469,2.9424,2.9507,2.9539,2.9552,2.9376,2.9375,2.9374,2.9373,0,0,2.9137,2.9178,2.9195,2.9214,2.9249,2.9288,2.9344,2.9388,2.9414,2.9446,2.9491,2.9556,2.9533,2.9558,2.9553,2.9592,2.9672,2.9562,2.9563,2.958,2.9767,2.9783,2.9799,2.9661,2.9663,2.9665,2.9763,0,2.9238,2.9337,2.9335,2.9426,2.9472,2.945,2.9499,2.9525,2.9533,2.9572,2.9581,2.9626,2.9594,2.9608,2.9645,2.9655,2.9709,2.9648,2.9701,2.9703,2.9692,2.9816,2.9834,2.9925,2.9776,2.9778,2.978,0,2.937,2.9406,2.9502,2.9528,2.9547,2.9591,2.963,2.9668,2.9697,2.97,2.9727,2.9716,2.9771,2.9726,2.9801,2.9759,2.978,2.9788,2.9792,2.9795,2.9745,2.982,2.9955,2.9967,2.98,2.9798,2.9797,0,2.9454,2.9526,2.9592,2.9609,2.9643,2.9674,2.9689,2.9714,2.974,2.9774,2.979,2.9831,2.9852,2.9882,2.9882,2.985,2.9956,2.9912,2.9959,2.9959,2.9981,2.9979,3.0118,2.9998,2.9998,2.9998,2.9997,0,2.9566,2.9625,2.963,2.967,2.9735,2.9732,2.9795,2.9807,2.983,2.9871,2.9855,2.9893,2.9892,2.993,2.993,2.999,3.0001,3.0003,3.0002,3.0004,3.0003,3.0016,3.0009,3.0001,3.0001,3.0,2.9999,0,2.967,2.9677,2.9746,2.9772,2.978,2.9826,2.9847,2.9884,2.9891,2.9943,2.9955,2.9965,3.0009,3.0012,3.0064,3.0063,3.0136,3.0129,3.0126,3.0124,3.0169,3.0164,3.032,3.034,3.0209,3.021,3.0211,0,2.9741,2.9786,2.9816,2.9842,2.9859,2.9902,2.9928,2.9926,2.9954,2.9989,3.0021,3.0064,3.0098,3.017,3.0181,3.022,3.0212,3.0264,3.0218,3.0217,3.021,3.0206,3.021,3.0273,3.0274,3.0275,3.0276,0,2.9865,2.9865,2.9904,2.9943,2.9975,3.0006,3.0035,3.0057,3.0058,3.009,3.0135,3.0161,3.0213,3.0255,3.0293,3.0307,3.0291,3.0291,3.0303,3.0304,3.03,3.03,3.0148,3.0287,3.0286,3.0285,3.0284,3.0284,2.9953,2.9991,3.0017,3.006,3.0081,3.0108,3.0144,3.0154,3.0192,3.0235,3.0231,3.0281,3.0306,3.0354,3.0371,3.0409,3.0391,3.0409,3.0414,3.0418,3.0421,3.0295,3.0416,3.0416,3.0415,3.0415,3.0415,0,3.0074,3.009,3.0129,3.017,3.0203,3.0186,3.0216,3.0245,3.0289,3.0314,3.0347,3.0398,3.0438,3.0452,3.0491,3.0518,3.0511,3.0528,3.0525,3.0528,3.0436,3.0421,3.0532,3.0532,3.0532,3.0532,3.0532,3.0532,3.0141,3.0203,3.0206,3.0278,3.0292,3.0341,3.036,3.0383,3.0403,3.046,3.0494,3.0503,3.0522,3.0562,3.0597,3.06,3.0614,3.0633,3.0633,3.0546,3.0535,3.0523,3.0508,3.0637,3.0637,3.0721,3.0721,3.0722]},{"header":{"parameterUnit":"m.s-1","parameterCategory":1,"la1":30.2991,"la2":30.254,"lo1":-89.0895,"lo2":-89.0444,"dy":0.0017,"dx":0.0017,"nx":28,"ny":28,"refTime":"2023-07-24T21:00:00:Z","depth":0,"parameterNumber":3,"parameterNumberName":"V-component_of_WINDS"},"data":[0,0,0,0,0,0,0,0,0,0,0,0,0,0,0,0,0,0,0,0,0,0,0,0,0,0,0,0,0,0,0,0,0,0,0,0,0,0,0,0,0,0,0,0,0,0,0,0,0,0,0,0,0,0,0,0,0,0,-1.3404,-1.3404,0,-1.3376,-1.3376,-1.3376,-1.335,-1.335,-1.335,-1.3349,-1.3318,-1.3318,-1.3317,0,0,0,0,0,0,0,0,0,0,0,0,0,-1.3434,-1.3433,-1.3404,-1.3404,-1.3404,-1.3376,-1.3376,-1.3376,-1.335,-1.335,-1.3349,-1.3349,-1.3319,-1.3318,-1.3317,0,0,0,0,0,0,0,0,0,0,0,0,0,-1.3415,-1.3433,-1.3404,-1.3388,-1.3386,-1.3377,-1.3376,-1.3376,-1.335,-1.335,-1.3349,-1.3349,-1.3319,-1.3318,-1.3317,-1.3321,0,0,-1.3315,-1.3314,0,0,0,0,0,0,0,0,-1.3416,-1.3414,-1.3391,-1.3389,-1.3387,-1.3366,-1.3375,-1.3357,-1.335,-1.3364,-1.3349,-1.3349,-1.3335,-1.3332,-1.3328,-1.332,-1.3319,-1.3315,-1.3314,-1.3314,-1.3314,0,0,0,0,0,0,0,-1.3417,-1.3415,-1.3393,-1.339,-1.3388,-1.3381,-1.3378,-1.3372,-1.3352,-1.3363,-1.3361,-1.3358,-1.3333,-1.3329,-1.3327,-1.3318,-1.3315,-1.3314,-1.3313,-1.3313,-1.3311,-1.3311,0,0,0,0,0,0,-1.3421,-1.3416,-1.3394,-1.3392,-1.3401,-1.3381,-1.3377,-1.3373,-1.3352,-1.3348,-1.3358,-1.3357,-1.3331,-1.3328,-1.3326,-1.3329,-1.3314,-1.3313,-1.3313,-1.331,-1.3311,-1.3311,0,0,0,0,0,0,-1.3422,-1.342,-1.3395,-1.3404,-1.34,-1.3381,-1.3377,-1.3373,-1.3369,-1.3349,-1.3345,-1.3357,-1.333,-1.3327,-1.3323,-1.3327,-1.3313,-1.3312,-1.331,-1.3311,-1.3311,-1.3335,0,0,0,0,0,0,-1.3423,-1.342,-1.3422,-1.3404,-1.34,-1.3393,-1.3377,-1.3373,-1.3367,-1.3365,-1.3347,-1.3343,-1.333,-1.3324,-1.3322,-1.3326,-1.3311,-1.3309,-1.331,-1.3311,-1.3333,-1.3336,-1.3338,0,0,0,0,0,-1.3424,-1.3429,-1.3422,-1.342,-1.3402,-1.3393,-1.3391,-1.3375,-1.3368,-1.3369,-1.3357,-1.3344,-1.3327,-1.3324,-1.3321,-1.3325,-1.3309,-1.331,-1.3311,-1.3332,-1.3335,-1.3338,0,0,0,0,0,0,-1.3447,-1.3427,-1.3418,-1.3418,-1.3408,-1.3389,-1.339,-1.3379,-1.3371,-1.3369,-1.3349,-1.3345,-1.3343,-1.3334,-1.333,-1.3327,-1.3316,-1.3317,-1.3333,-1.3336,-1.3339,-1.334,-1.3311,0,0,0,0,0,-1.3453,-1.3448,-1.343,-1.3431,-1.3427,-1.341,-1.3405,-1.3394,-1.3383,-1.3378,-1.3365,-1.3353,-1.3345,-1.3341,-1.3332,-1.3332,-1.3327,-1.3333,-1.3336,-1.3338,-1.3338,-1.3337,-1.3339,-1.3315,-1.3315,-1.3315,0,0,-1.3463,-1.3451,-1.3449,-1.3436,-1.3427,-1.3422,-1.3406,-1.3402,-1.3398,-1.3377,-1.3372,-1.3362,-1.3348,-1.3345,-1.3344,-1.3338,-1.3344,-1.3339,-1.3341,-1.334,-1.3338,-1.334,-1.3342,-1.3315,-1.3315,-1.3315,0,0,-1.3479,-1.347,-1.347,-1.3461,-1.3448,-1.3437,-1.3437,-1.342,-1.3412,-1.3407,-1.3392,-1.3386,-1.3373,-1.3364,-1.3357,-1.337,-1.3358,-1.3368,-1.338,-1.3379,-1.3381,-1.3382,-1.3386,-1.3388,-1.3368,-1.3369,-1.3369,0,-1.3494,-1.3486,-1.3471,-1.3468,-1.3462,-1.3444,-1.3443,-1.3435,-1.342,-1.3415,-1.3409,-1.3392,-1.3382,-1.3376,-1.338,-1.3375,-1.3374,-1.3369,-1.3382,-1.3383,-1.3384,-1.3388,-1.3389,-1.337,-1.337,-1.3369,-1.3369,0,-1.3504,-1.35,-1.3501,-1.3487,-1.3481,-1.3479,-1.3463,-1.3459,-1.3449,-1.3438,-1.3432,-1.3419,-1.3407,-1.3405,-1.3395,-1.3398,-1.3395,-1.3386,-1.3374,-1.3388,-1.3391,-1.3392,-1.3372,-1.3371,-1.3371,-1.337,0,0,-1.3533,-1.3511,-1.3512,-1.3505,-1.3489,-1.3485,-1.3482,-1.3471,-1.3468,-1.3458,-1.3454,-1.3443,-1.3435,-1.3427,-1.3416,-1.3415,-1.3425,-1.3405,-1.3405,-1.3408,-1.3426,-1.3433,-1.3434,-1.3417,-1.3417,-1.3417,-1.3427,0,-1.3546,-1.354,-1.3526,-1.3524,-1.3519,-1.3503,-1.35,-1.3489,-1.3479,-1.3473,-1.3461,-1.3454,-1.3443,-1.3438,-1.3437,-1.3424,-1.3428,-1.3423,-1.3412,-1.3412,-1.3415,-1.3436,-1.3443,-1.3452,-1.3428,-1.3428,-1.3428,0,-1.356,-1.3551,-1.3549,-1.3533,-1.3531,-1.3528,-1.3517,-1.3512,-1.3499,-1.3492,-1.3484,-1.3471,-1.3466,-1.3457,-1.3449,-1.3446,-1.3441,-1.3434,-1.3434,-1.3431,-1.342,-1.3433,-1.3455,-1.3456,-1.343,-1.343,-1.343,0,-1.358,-1.3568,-1.3565,-1.356,-1.3542,-1.354,-1.3532,-1.352,-1.3514,-1.3504,-1.35,-1.349,-1.3484,-1.3476,-1.346,-1.3455,-1.3454,-1.3443,-1.3446,-1.3447,-1.3446,-1.3446,-1.3467,-1.3445,-1.3445,-1.3445,-1.3445,0,-1.3595,-1.3594,-1.3574,-1.3572,-1.357,-1.3554,-1.3552,-1.3543,-1.3532,-1.3527,-1.3512,-1.3507,-1.3488,-1.3481,-1.3469,-1.3464,-1.3462,-1.3455,-1.3451,-1.3455,-1.3456,-1.3451,-1.3449,-1.3445,-1.3445,-1.3445,-1.3445,0,-1.3617,-1.3603,-1.3599,-1.3582,-1.3578,-1.3577,-1.3562,-1.3559,-1.3549,-1.3543,-1.354,-1.3523,-1.3514,-1.3499,-1.3485,-1.3477,-1.3473,-1.3468,-1.3478,-1.3476,-1.348,-1.3479,-1.3497,-1.3498,-1.3476,-1.3476,-1.3477,0,-1.3627,-1.3625,-1.3609,-1.3605,-1.3598,-1.3592,-1.3586,-1.3571,-1.3565,-1.3551,-1.355,-1.354,-1.3531,-1.3517,-1.3503,-1.3492,-1.3486,-1.3493,-1.3484,-1.3488,-1.3485,-1.3485,-1.3484,-1.3495,-1.3495,-1.3495,-1.3496,0,-1.3645,-1.3639,-1.3632,-1.3622,-1.3616,-1.3608,-1.3599,-1.3596,-1.3579,-1.3573,-1.3564,-1.3558,-1.3544,-1.3534,-1.3522,-1.3512,-1.3501,-1.3499,-1.3499,-1.3502,-1.3507,-1.3504,-1.3482,-1.3498,-1.3498,-1.3498,-1.3497,-1.3497,-1.366,-1.3658,-1.3647,-1.3639,-1.3631,-1.3623,-1.3619,-1.3608,-1.3601,-1.3589,-1.358,-1.3572,-1.3559,-1.3541,-1.3532,-1.3525,-1.352,-1.352,-1.352,-1.352,-1.3521,-1.351,-1.3523,-1.3523,-1.3523,-1.3522,-1.3522,0,-1.3677,-1.3669,-1.3662,-1.365,-1.3644,-1.3635,-1.3625,-1.362,-1.3613,-1.3602,-1.3594,-1.3584,-1.3574,-1.3559,-1.3548,-1.3545,-1.3539,-1.3542,-1.3542,-1.354,-1.3527,-1.3528,-1.3547,-1.3547,-1.3547,-1.3547,-1.3547,-1.3547,-1.3685,-1.3681,-1.3673,-1.3665,-1.3656,-1.3649,-1.3643,-1.3635,-1.3627,-1.3616,-1.3608,-1.3599,-1.3586,-1.3574,-1.3565,-1.356,-1.3556,-1.3561,-1.3555,-1.3543,-1.3541,-1.3539,-1.3539,-1.3561,-1.3561,-1.3568,-1.3569,-1.3569]}]]